Weather History for Fort Indiantown Gap, PA

Change the Weather History Date:

Thursday, February 28, 2013

  Actual Average Record
Temperature  
Mean Temperature 38 °F -  
Max Temperature 42 °F 41 °F 56 °F (2011)
Min Temperature 33 °F 27 °F 5 °F (2014)
Degree Days  
Heating Degree Days 28    
Moisture  
Dew Point 32 °F    
Average Humidity 77    
Maximum Humidity 100    
Minimum Humidity 53    
Precipitation  
Precipitation 0.01 in - - ()
Sea Level Pressure  
Sea Level Pressure 29.64 in    
Wind  
Wind Speed 7 mph (West)    
Max Wind Speed 16 mph    
Max Gust Speed 23 mph    
Visibility 10 miles    
Events      
Averages and records for this station are not official NWS values.
T = Trace of Precipitation, MM = Missing Value Source: NWS Daily Summary

Daily Weather History Graph

Daily Weather History Graph

Search for Another Location

Airport:

Trip Planner

Search our weather history database for the weather conditions in past years. The results will help you decide how hot, cold, wet, or windy it might be!

Date:

Astronomy

Feb. 28, 2013 Rise Set
Actual Time 6:41 AM EST 5:56 PM EST
Civil Twilight 6:13 AM EST 6:24 PM EST
Nautical Twilight 5:42 AM EST 6:55 PM EST
Astronomical Twilight 5:10 AM EST 7:27 PM EST
Moon 9:22 PM EST (2/28) 7:48 AM EST (2/28)
Length of Visible Light 12h 10m
Length of Day
11h 15m
Waning Gibbous, 91% of the Moon is Illuminated
Feb 28
Waning Gibbous
Mar 4
Last Quarter
Mar 11
New
Mar 19
First Quarter
Mar 27
Full

Hourly Weather History & Observations

Time (EST) Temp. Windchill Dew Point Humidity Pressure Visibility Wind Dir Wind Speed Gust Speed Precip Events Conditions
12:55 AM 40.3 °F - 35.1 °F 82% 29.64 in 10.0 mi Calm Calm - N/A   Clear
1:55 AM 40.3 °F 37.1 °F 37.2 °F 89% 29.63 in 10.0 mi SW 4.6 mph - N/A   Clear
2:55 AM 40.1 °F 36.9 °F 37.4 °F 90% 29.63 in 10.0 mi West 4.6 mph - N/A   Scattered Clouds
3:18 AM 39.2 °F 37.0 °F 39.2 °F 100% 29.63 in 10.0 mi West 3.5 mph - N/A   Mostly Cloudy
3:55 AM 38.7 °F 32.9 °F 38.5 °F 99% 29.63 in 9.0 mi West 8.1 mph - N/A   Overcast
4:06 AM 39.2 °F 33.0 °F 37.4 °F 93% 29.63 in 10.0 mi West 9.2 mph 17.3 mph N/A   Scattered Clouds
4:22 AM 37.4 °F 30.3 °F 37.4 °F 100% 29.64 in 10.0 mi WNW 10.4 mph 17.3 mph N/A   Light Drizzle
4:31 AM 37.4 °F 31.4 °F 37.4 °F 100% 29.64 in 10.0 mi West 8.1 mph - N/A   Clear
4:55 AM 37.2 °F 30.0 °F 35.8 °F 95% 29.64 in 10.0 mi West 10.4 mph - 0.01 in   Scattered Clouds
5:55 AM 36.0 °F 32.1 °F 35.8 °F 99% 29.64 in 10.0 mi SSW 4.6 mph - N/A   Mostly Cloudy
6:55 AM 33.3 °F - 32.9 °F 99% 29.64 in 10.0 mi Calm Calm - N/A   Partly Cloudy
7:55 AM 33.8 °F - 33.8 °F 100% 29.66 in 10.0 mi Calm Calm - N/A   Partly Cloudy
8:55 AM 39.2 °F 33.0 °F 33.8 °F 81% 29.65 in 10.0 mi WSW 9.2 mph - N/A   Clear
9:55 AM 42.3 °F 36.3 °F 30.2 °F 62% 29.64 in 10.0 mi West 10.4 mph - N/A   Clear
10:55 AM 41.5 °F 36.4 °F 28.9 °F 61% 29.64 in 10.0 mi WNW 8.1 mph - N/A   Overcast
11:55 AM 42.1 °F 36.1 °F 26.2 °F 53% 29.63 in 10.0 mi West 10.4 mph 17.3 mph N/A   Overcast
12:55 PM 42.4 °F 36.1 °F 26.6 °F 54% 29.62 in 10.0 mi WSW 11.5 mph 20.7 mph N/A   Mostly Cloudy
1:55 PM 42.3 °F 36.3 °F 26.6 °F 54% 29.61 in 10.0 mi WNW 10.4 mph - N/A   Overcast
2:55 PM 41.9 °F 34.3 °F 26.4 °F 54% 29.61 in 10.0 mi West 15.0 mph - N/A   Overcast
3:55 PM 41.4 °F 36.2 °F 27.0 °F 57% 29.62 in 10.0 mi WSW 8.1 mph 23.0 mph N/A   Overcast
4:04 PM 41.0 °F 34.7 °F 28.4 °F 61% - 10.0 mi West 10.4 mph - N/A   Unknown
4:12 PM 41.0 °F 35.8 °F 28.4 °F 61% 29.60 in 10.0 mi WNW 8.1 mph - N/A   Overcast
4:55 PM 40.3 °F 33.9 °F 27.3 °F 60% 29.63 in 10.0 mi West 10.4 mph 17.3 mph 0.00 in   Scattered Clouds
5:55 PM 39.0 °F 31.0 °F 28.0 °F 65% 29.65 in 10.0 mi West 13.8 mph - N/A   Mostly Cloudy
6:10 PM 39.2 °F 30.8 °F 30.2 °F 70% 29.65 in 10.0 mi WNW 15.0 mph 20.7 mph N/A   Mostly Cloudy
6:42 PM 37.4 °F 29.3 °F 30.2 °F 75% 29.66 in 10.0 mi West 12.7 mph - N/A   Scattered Clouds
6:55 PM 38.1 °F 32.9 °F 30.0 °F 73% 29.67 in 10.0 mi West 6.9 mph - N/A   Partly Cloudy
7:55 PM 37.0 °F 31.6 °F 31.8 °F 81% 29.68 in 10.0 mi West 6.9 mph - N/A   Partly Cloudy
8:55 PM 36.0 °F 33.3 °F 31.5 °F 84% 29.69 in 10.0 mi WSW 3.5 mph - N/A   Partly Cloudy
9:55 PM 37.2 °F 29.6 °F 30.0 °F 75% 29.69 in 10.0 mi West 11.5 mph - N/A   Overcast
10:55 PM 37.4 °F 28.2 °F 31.1 °F 78% 29.69 in 10.0 mi West 16.1 mph 20.7 mph N/A   Overcast
11:55 PM 37.8 °F 30.2 °F 30.6 °F 75% 29.69 in 10.0 mi West 11.5 mph - N/A   Overcast